When you browse on this site, cookies collect data to enhance your experience and personalize the content and advertising you see.
Visit our Privacy Policy to learn more. By continuing to use the site, you agree to this use of cookies and data.
  • In Lithuania
  • List of Countries
  • For 7 days
  • Water Temperature
  • Weather Map
  • Weather Widgets
  • user-avatar
    Login

    Hourly Weather Bujaki

    Today, 19 August, Monday

    Time Temperature Precipitation Wind Pressure Humidity
    00:00 +20°C° 0.1 mm 3 mps 741 mmHg 75%
    01:00 +19°C° 0.1 mm 3 mps 742 mmHg 80%
    02:00 +19°C° 0 mm 3 mps 742 mmHg 82%
    03:00 +19°C° 0 mm 3 mps 742 mmHg 84%
    04:00 +19°C° 0 mm 3 mps 742 mmHg 86%
    05:00 +20°C° 0 mm 3 mps 742 mmHg 83%
    06:00 +21°C° 0 mm 3 mps 743 mmHg 80%
    07:00 +22°C° 0 mm 3 mps 743 mmHg 77%
    08:00 +23°C° 0 mm 4 mps 744 mmHg 73%
    09:00 +25°C° 0 mm 4 mps 744 mmHg 68%
    10:00 +26°C° 0 mm 5 mps 745 mmHg 64%
    11:00 +26°C° 0.1 mm 4 mps 745 mmHg 65%
    12:00 +25°C° 0.1 mm 3 mps 745 mmHg 66%
    13:00 +24°C° 0.1 mm 2 mps 745 mmHg 68%
    14:00 +22°C° 0.1 mm 3 mps 745 mmHg 72%
    15:00 +22°C° 0.1 mm 3 mps 746 mmHg 76%
    16:00 +21°C° 0.1 mm 3 mps 746 mmHg 80%
    17:00 +20°C° 0.4 mm 3 mps 746 mmHg 84%
    18:00 +19°C° 0.4 mm 2 mps 746 mmHg 88%
    19:00 +18°C° 0.4 mm 2 mps 747 mmHg 93%
    20:00 +17°C° 0 mm 2 mps 747 mmHg 94%
    21:00 +17°C° 0 mm 2 mps 747 mmHg 95%
    22:00 +16°C° 0 mm 2 mps 748 mmHg 97%
    23:00 +16°C° 0 mm 2 mps 748 mmHg 96%

    Tomorrow, 20 August, Tuesday

    Time Temperature Precipitation Wind Pressure Humidity
    00:00 +16°C° 0 mm 2 mps 748 mmHg 96%
    01:00 +15°C° 0 mm 2 mps 749 mmHg 95%
    02:00 +15°C° 0 mm 2 mps 749 mmHg 95%
    03:00 +15°C° 0 mm 2 mps 749 mmHg 94%
    04:00 +15°C° 0 mm 1 mps 749 mmHg 93%
    05:00 +16°C° 0 mm 1 mps 750 mmHg 89%
    06:00 +18°C° 0 mm 1 mps 750 mmHg 84%
    07:00 +19°C° 0 mm 1 mps 750 mmHg 80%
    08:00 +21°C° 0 mm 1 mps 750 mmHg 70%
    09:00 +21°C° 0 mm 2 mps 751 mmHg 60%
    10:00 +24°C° 0 mm 2 mps 751 mmHg 51%
    11:00 +24°C° 0 mm 2 mps 751 mmHg 48%
    12:00 +25°C° 0 mm 2 mps 751 mmHg 44%
    13:00 +26°C° 0 mm 2 mps 751 mmHg 41%
    14:00 +25°C° 0 mm 2 mps 751 mmHg 41%
    15:00 +25°C° 0 mm 1 mps 751 mmHg 42%
    16:00 +25°C° 0 mm 1 mps 750 mmHg 42%
    17:00 +23°C° 0 mm 1 mps 750 mmHg 48%
    18:00 +22°C° 0 mm 1 mps 751 mmHg 54%
    19:00 +20°C° 0 mm 1 mps 751 mmHg 60%
    20:00 +19°C° 0 mm 2 mps 751 mmHg 62%
    21:00 +19°C° 0 mm 2 mps 751 mmHg 64%
    22:00 +19°C° 0 mm 2 mps 751 mmHg 66%
    23:00 +18°C° 0 mm 2 mps 751 mmHg 69%

    Day after tomorrow, 21 August, Wednesday

    Time Temperature Precipitation Wind Pressure Humidity
    00:00 +18°C° 0 mm 2 mps 751 mmHg 71%
    01:00 +18°C° 0 mm 2 mps 751 mmHg 74%
    02:00 +17°C° 0.9 mm 3 mps 751 mmHg 80%
    03:00 +16°C° 0.9 mm 3 mps 750 mmHg 87%
    04:00 +15°C° 0.9 mm 4 mps 750 mmHg 94%
    05:00 +15°C° 1.3 mm 4 mps 751 mmHg 94%
    06:00 +14°C° 1.3 mm 4 mps 751 mmHg 93%
    07:00 +14°C° 1.3 mm 4 mps 751 mmHg 93%
    08:00 +14°C° 0.2 mm 3 mps 751 mmHg 93%
    09:00 +14°C° 0.2 mm 3 mps 751 mmHg 92%
    10:00 +14°C° 0.2 mm 3 mps 752 mmHg 92%
    11:00 +16°C° 0 mm 2 mps 752 mmHg 88%
    12:00 +17°C° 0 mm 2 mps 752 mmHg 83%
    13:00 +18°C° 0 mm 2 mps 752 mmHg 79%
    14:00 +19°C° 0 mm 2 mps 753 mmHg 75%
    15:00 +19°C° 0 mm 2 mps 753 mmHg 71%
    16:00 +21°C° 0 mm 1 mps 753 mmHg 67%
    17:00 +20°C° 0.1 mm 1 mps 753 mmHg 73%
    18:00 +19°C° 0.1 mm 1 mps 753 mmHg 80%
    19:00 +16°C° 0.1 mm 1 mps 753 mmHg 86%
    20:00 +16°C° 0 mm 1 mps 753 mmHg 88%
    21:00 +15°C° 0 mm 2 mps 754 mmHg 90%
    22:00 +14°C° 0 mm 2 mps 754 mmHg 92%
    23:00 +14°C° 0 mm 2 mps 754 mmHg 92%

    22 August, Thursday

    Time Temperature Precipitation Wind Pressure Humidity
    00:00 +13°C° 0 mm 2 mps 754 mmHg 93%
    01:00 +13°C° 0 mm 1 mps 754 mmHg 93%
    02:00 +12°C° 0 mm 1 mps 754 mmHg 93%
    03:00 +12°C° 0 mm 1 mps 754 mmHg 93%
    04:00 +12°C° 0 mm 1 mps 754 mmHg 93%
    05:00 +13°C° 0 mm 1 mps 754 mmHg 88%
    06:00 +14°C° 0 mm 1 mps 754 mmHg 83%
    07:00 +15°C° 0 mm 1 mps 754 mmHg 78%
    08:00 +18°C° 0 mm 1 mps 754 mmHg 70%
    09:00 +19°C° 0 mm 1 mps 754 mmHg 61%
    10:00 +21°C° 0 mm 1 mps 754 mmHg 53%
    11:00 +22°C° 0 mm 1 mps 754 mmHg 51%
    12:00 +23°C° 0 mm 1 mps 754 mmHg 48%
    13:00 +24°C° 0 mm 1 mps 754 mmHg 45%
    14:00 +23°C° 0 mm 2 mps 754 mmHg 45%
    15:00 +23°C° 0 mm 2 mps 753 mmHg 45%
    16:00 +23°C° 0 mm 2 mps 753 mmHg 45%
    17:00 +20°C° 0 mm 2 mps 753 mmHg 52%
    18:00 +19°C° 0 mm 2 mps 753 mmHg 59%
    19:00 +17°C° 0 mm 2 mps 753 mmHg 67%
    20:00 +16°C° 0 mm 2 mps 754 mmHg 68%
    21:00 +15°C° 0 mm 2 mps 754 mmHg 69%
    22:00 +15°C° 0 mm 2 mps 754 mmHg 71%
    23:00 +14°C° 0 mm 1 mps 754 mmHg 72%

    23 August, Friday

    Time Temperature Precipitation Wind Pressure Humidity
    00:00 +14°C° 0 mm 1 mps 754 mmHg 72%
    01:00 +14°C° 0 mm 1 mps 754 mmHg 73%
    02:00 +13°C° 0 mm 1 mps 754 mmHg 74%
    03:00 +13°C° 0 mm 1 mps 754 mmHg 74%
    04:00 +13°C° 0 mm 1 mps 754 mmHg 75%
    05:00 +15°C° 0 mm 1 mps 754 mmHg 71%
    06:00 +15°C° 0 mm 0 mps 755 mmHg 67%
    07:00 +16°C° 0 mm 0 mps 755 mmHg 63%
    08:00 +18°C° 0 mm 0 mps 755 mmHg 59%
    09:00 +20°C° 0 mm 0 mps 755 mmHg 54%
    10:00 +24°C° 0 mm 1 mps 755 mmHg 50%
    11:00 +25°C° 0 mm 1 mps 755 mmHg 48%
    12:00 +25°C° 0 mm 1 mps 755 mmHg 46%
    13:00 +26°C° 0 mm 1 mps 755 mmHg 45%
    14:00 +25°C° 0 mm 1 mps 755 mmHg 46%
    15:00 +25°C° 0 mm 1 mps 754 mmHg 46%
    16:00 +24°C° 0 mm 1 mps 754 mmHg 47%
    17:00 +23°C° 0 mm 1 mps 754 mmHg 54%
    18:00 +20°C° 0 mm 2 mps 754 mmHg 60%
    19:00 +18°C° 0 mm 2 mps 754 mmHg 67%
    20:00 +17°C° 0 mm 2 mps 754 mmHg 70%
    21:00 +16°C° 0 mm 2 mps 754 mmHg 72%
    22:00 +15°C° 0 mm 2 mps 754 mmHg 75%
    23:00 +15°C° 0 mm 2 mps 754 mmHg 76%

    24 August, Saturday

    Time Temperature Precipitation Wind Pressure Humidity
    00:00 +14°C° 0 mm 2 mps 754 mmHg 77%
    01:00 +14°C° 0 mm 2 mps 754 mmHg 78%
    02:00 +13°C° 0 mm 2 mps 754 mmHg 80%
    03:00 +13°C° 0 mm 2 mps 754 mmHg 83%
    04:00 +12°C° 0 mm 2 mps 753 mmHg 85%
    05:00 +13°C° 0 mm 3 mps 753 mmHg 81%
    06:00 +14°C° 0 mm 3 mps 753 mmHg 77%
    07:00 +16°C° 0 mm 3 mps 753 mmHg 73%
    08:00 +18°C° 0 mm 4 mps 753 mmHg 66%
    09:00 +20°C° 0 mm 4 mps 753 mmHg 60%
    10:00 +21°C° 0 mm 5 mps 753 mmHg 53%
    11:00 +22°C° 0 mm 5 mps 752 mmHg 52%
    12:00 +23°C° 0 mm 5 mps 752 mmHg 51%
    13:00 +25°C° 0 mm 5 mps 751 mmHg 49%
    14:00 +25°C° 0 mm 5 mps 751 mmHg 51%
    15:00 +25°C° 0 mm 5 mps 750 mmHg 53%
    16:00 +25°C° 0 mm 5 mps 750 mmHg 55%
    17:00 +23°C° 0 mm 5 mps 750 mmHg 62%
    18:00 +21°C° 0 mm 4 mps 749 mmHg 68%
    19:00 +20°C° 0 mm 4 mps 749 mmHg 74%
    20:00 +19°C° 0 mm 4 mps 749 mmHg 74%
    21:00 +19°C° 0 mm 4 mps 749 mmHg 75%
    22:00 +17°C° 0 mm 5 mps 749 mmHg 75%
    23:00 +18°C° 0 mm 4 mps 749 mmHg 76%
    Show more